Location: Unspecified
(50.0760°N, 14.4380°E)
Time: 17:21:26
(UTC+00:00)

Daily predictions for brighter satellites

Satellite Brightness Start Highest point End
(mag) Time Altitude Azimuth Time Altitude Azimuth Time Altitude Azimuth
Cosmos 1939 Rocket 3.0 18:45:35 10° S 18:49:30 77° WSW 18:53:29 10° NNW
Lacrosse 5 2.4 18:44:45 10° NW 18:49:44 54° NNE 18:54:44 10° E
Cosmos 1408 3.0 18:46:46 10° NNW 18:50:26 66° W 18:54:06 10° S
USA 234 4.1 18:44:17 10° ENE 18:50:32 50° N 18:56:47 10° WNW
SL-16 R/B 2.6 18:46:00 10° S 18:51:13 40° ESE 18:56:28 10° NE
Cosmos 405 Rocket 3.8 18:50:19 10° SSE 18:53:36 26° E 18:56:57 10° NE
ATLAS CENTAUR R/B 2.4 18:50:07 10° WSW 18:53:43 46° NW 18:57:35 10° NNE
ERS-1 Rocket 4.1 18:50:24 10° ESE 18:54:38 28° ENE 18:58:53 10° N
Cosmos 1933 Rocket 4.1 18:51:07 10° NNW 18:55:27 62° W 18:59:45 10° S
Cosmos 405 2.9 18:54:46 10° N 18:58:17 71° ENE 19:01:46 10° SSE
Cosmos 2218 Rocket 4.1 18:52:55 10° S 18:59:15 71° E 19:05:39 10° NNE
Resurs 01 Rocket 1.9 18:55:06 10° S 18:59:32 73° WSW 19:03:59 10° NNW
SPOT 5 4.4 18:56:55 10° ESE 18:59:54 18° ENE 19:02:52 10° NNE
Cosmos 407 Rocket 3.7 18:58:27 10° NNW 19:03:35 75° WSW 19:08:41 10° SSE
Cosmos 2366 rocket 4.0 18:57:43 10° S 19:03:56 70° E 19:10:15 10° NNE
Cosmos 1437 Rocket 4.2 19:04:09 10° NNE 19:07:18 23° ENE 19:10:06 12° ESE
SL-8 Rocket 4.1 19:03:57 10° S 19:10:15 85° W 19:16:33 10° N
YAOGAN 6 4.1 19:09:58 10° SSW 19:13:21 37° W 19:16:49 10° NNW
Cosmos 1707 Rocket 4.2 19:10:01 10° SSE 19:13:56 35° E 19:17:53 10° NNE
BREEZE-M DEB (TANK) 3.7 19:11:33 10° W 19:14:40 25° SW 19:16:21 12° SSE
Cosmos 1980 4.3 19:09:37 10° SW 19:15:16 63° WNW 19:20:56 10° NNE
Cosmos 1869 Rocket 3.5 19:14:34 10° N 19:18:57 78° E 19:23:17 10° SSE
Cosmos 2369 Rocket 3.0 19:13:47 10° NNW 19:19:08 39° NE 19:23:46 13° ESE
SL-8 R/B 3.7 19:14:34 10° WSW 19:19:20 66° S 19:24:07 10° E
Cosmos 1023 Rocket 4.4 19:15:00 10° NNW 19:20:12 85° ENE 19:25:12 11° SSE
ERS-2 4.4 19:17:17 10° SSW 19:20:18 24° W 19:23:21 10° NW
Cosmos 1862 3.3 19:17:18 10° N 19:21:22 81° E 19:25:23 10° SSE
Cosmos 2297 4.3 19:16:18 10° NW 19:21:52 58° WSW 19:27:26 10° S
Cosmos 1733 Rocket 4.1 19:21:31 10° N 19:25:25 30° ENE 19:28:13 16° SE
Cosmos 1371 Rocket 4.4 19:21:51 10° SSW 19:27:11 72° WNW 19:32:35 10° NNE
BREEZE-M DEB (TANK) 1.5 19:26:16 10° W 19:28:37 82° S 19:30:23 16° E
Cosmos 676 Rocket 4.2 19:24:23 10° NNW 19:29:38 72° WSW 19:34:48 10° SSE
ATLAS 5 CENTAUR R/B 2.7 19:25:08 10° NW 19:30:44 58° NE 19:35:56 15° ESE
Cosmos 2344 3.9 19:24:32 10° S 19:31:38 45° ESE 19:39:31 10° NE
Cosmos 2219 Rocket 4.3 19:27:24 10° WSW 19:32:26 32° NW 19:37:28 10° NNE
USA 81 4.1 19:28:15 10° N 19:33:35 86° W 19:38:50 10° S
SPOT 1/Viking Rocket 4.3 19:31:56 16° SE 19:35:38 38° ENE 19:40:26 10° N
RESURS DK-1 3.2 19:33:12 10° NNW 19:37:08 38° NE 19:39:44 18° ESE
Cosmos 2333 Rocket 4.1 19:32:21 10° WSW 19:37:27 33° NW 19:42:34 10° NNE
Cosmos 2237 Rocket 3.4 19:36:00 10° SW 19:41:24 46° NW 19:46:52 10° NNE
H-2A R/B 1.9 19:38:52 15° SSE 19:43:01 72° ENE 19:47:57 10° N
Cosmos 1633 3.7 19:40:11 10° N 19:43:20 28° ENE 19:44:42 22° ESE
Cosmos 1140 Rocket 3.8 19:39:32 10° NNW 19:44:40 63° WSW 19:49:19 12° S
Cosmos 2056 Rocket 4.1 19:42:45 10° SW 19:48:07 62° WNW 19:53:28 10° NNE
Cosmos 1934 Rocket 4.4 19:43:59 16° SSE 19:48:22 40° E 19:53:58 10° NNE
Cosmos 1452 Rocket 3.5 19:43:18 10° S 19:48:29 62° ESE 19:53:41 10° NNE
Helios 1B rocket 3.7 19:46:04 10° NE 19:49:23 23° E 19:50:15 21° ESE
Cosmos 1606 4.3 19:49:03 18° E 19:49:35 19° E 19:52:21 10° NE
SL-08 RB Rocket 3.6 19:46:53 17° SSE 19:50:20 83° ENE 19:54:51 10° NNW
Meteor 1-4 Rocket 3.3 19:48:45 10° N 19:51:59 34° ENE 19:53:10 26° ESE
Cosmos 389 Rocket 4.4 19:51:15 10° NNE 19:53:33 16° ENE 19:54:19 15° E
GENESIS II 4.2 19:49:34 10° NW 19:53:33 76° SW 19:55:43 26° SSE
Cosmos 1441 Rocket 3.6 19:49:54 10° SSW 19:53:36 63° WNW 19:57:23 10° N
CZ-4C R/B 2.3 19:48:55 10° SSW 19:53:56 48° ESE 19:59:43 10° NE
Terra 3.0 19:52:05 19° ESE 19:54:31 29° ENE 19:58:37 10° N
Meteor 1-14 Rocket 4.3 19:54:55 10° N 20:00:25 59° ENE 20:03:48 23° SSE
Cosmos 1850 Rocket 3.9 19:56:02 10° NNW 20:01:16 88° ENE 20:04:34 23° SSE
SL-19 R/B 4.5 20:00:45 23° SE 20:04:13 59° ENE 20:09:50 10° NNW
MetOp-B 4.4 20:01:46 15° S 20:06:17 68° WSW 20:11:39 10° NNW
Meteor 1-25 Rocket 4.3 20:02:39 10° N 20:08:22 66° ENE 20:11:42 25° SSE
Cosmos 1741 Rocket 4.1 20:06:39 10° NNW 20:12:01 80° WSW 20:15:14 25° SSE
Cosmos 1943 Rocket 2.3 20:08:12 10° NNW 20:13:44 66° ENE 20:16:41 28° SE
ARGOS 3.8 20:09:17 12° S 20:14:03 53° W 20:19:19 10° NNW
Cosmos 1174 4.5 20:15:38 26° S 20:17:37 39° ESE 20:21:22 10° NE
Cosmos 2242 Rocket 3.5 20:16:21 28° SSE 20:18:32 64° E 20:22:56 10° NNE
Cosmos 921 Rocket 3.1 20:16:55 29° SSE 20:18:49 53° ESE 20:23:00 10° NNE
Cosmos 1933 3.8 20:16:20 11° SSW 20:20:16 61° WNW 20:24:21 10° N
USA 245 2.7 20:20:15 45° WSW 20:20:17 45° WSW 20:22:28 10° NNW
Meteor 1-26 Rocket 4.1 20:16:48 18° S 20:20:53 71° E 20:26:30 10° NNE
Cosmos 2239 Rocket 4.5 20:14:54 10° S 20:21:15 89° E 20:27:37 10° N
Meteor 1-20 Rocket 4.1 20:16:56 10° N 20:22:27 77° ENE 20:25:21 29° SSE
Cosmos 1821 Rocket 4.0 20:16:49 10° S 20:23:10 87° WNW 20:29:28 10° N
Cosmos 1908 Rocket 3.9 20:19:17 10° N 20:23:37 49° ENE 20:25:02 36° SE
Cosmos 1782 3.5 20:25:30 35° ESE 20:25:49 35° E 20:29:30 10° NNE
SL-24 R/B 4.4 20:24:18 27° S 20:27:13 83° E 20:32:08 10° N
Cosmos 1461 3.3 20:23:34 10° NW 20:28:23 71° NE 20:30:15 36° ESE
Cosmos 1862 Rocket 3.4 20:28:55 32° S 20:30:54 76° E 20:35:18 10° NNE
Helios 1A 3.4 20:29:41 28° S 20:31:43 59° WSW 20:35:52 10° NNW
Lacrosse 5 2.3 20:27:51 10° WNW 20:32:46 51° SW 20:34:36 34° SSE
USA 234 3.8 20:26:44 10° E 20:33:02 57° NNE 20:39:24 10° WNW
ERS-1 Rocket 3.7 20:29:45 19° SSW 20:33:12 48° W 20:38:05 10° NNW
ATLAS CENTAUR R/B 4.5 20:31:28 10° NW 20:33:42 14° NNW 20:36:00 10° NNE
SL-16 R/B 3.5 20:29:58 10° WSW 20:35:20 42° NW 20:40:44 10° NNE
BREEZE M DEB (TANK) 3.7 20:22:17 10° W 20:36:54 87° S 20:39:56 22° E
SPOT 5 2.9 20:35:33 31° S 20:37:36 65° WSW 20:41:58 10° NNW
Cosmos 2123 Rocket 4.1 20:31:44 10° NNW 20:38:04 80° W 20:41:51 26° S
Spot 1 4.2 20:36:42 36° SSE 20:38:41 86° WSW 20:43:17 10° NNW
Meteor 2-17 Rocket 4.4 20:37:45 23° S 20:41:44 82° E 20:47:53 10° NNE
Cosmos 1437 Rocket 4.1 20:40:06 10° NNW 20:43:41 35° W 20:45:33 22° SW
Lacrosse 4 Rocket 4.4 20:43:26 10° N 20:44:29 11° NNE 20:45:33 10° NE
IGS 5A 3.4 20:44:42 50° SSE 20:45:45 86° ENE 20:49:58 10° NNW
Cosmos 1331 Rocket 4.3 20:46:00 40° SE 20:47:06 46° ESE 20:52:08 10° NE
CZ-2C R/B 3.3 20:56:16 10° NNE 21:01:16 36° E 21:01:51 35° ESE
Cosmos 1943 3.1 20:58:07 27° SSW 21:01:21 78° ESE 21:07:04 10° NNE
SL-8 R/B 3.6 20:56:58 10° W 21:01:45 69° S 21:02:40 55° SE
Meteor 1-29 2.9 20:59:18 10° NNE 21:02:43 79° WNW 21:02:45 79° W
Cosmos 1603 4.0 20:57:11 10° SW 21:02:47 66° WNW 21:08:23 10° NNE
Cosmos 2369 Rocket 2.9 20:57:52 10° NW 21:03:16 44° WSW 21:05:34 29° SSW
Gblst 52 Del rocket 4.0 20:59:10 10° WSW 21:04:39 73° SSE 21:10:15 10° ENE
Nimbus 7 Rocket 4.4 21:00:02 10° NNE 21:05:54 66° ESE 21:07:54 41° S
Cosmos 1486 Rocket 4.1 21:01:37 10° NNW 21:06:54 69° ENE 21:08:18 48° SE
CARTOSAT-1 3.9 21:07:11 45° SSW 21:08:10 58° W 21:12:27 10° NNW
GEOS 3 Rocket 3.6 21:07:41 10° NE 21:13:02 64° SE 21:14:46 41° SSW
Cosmos 1605 Rocket 4.2 21:10:10 26° SSW 21:13:56 75° WNW 21:20:23 10° N
RESURS DK-1 3.8 21:11:31 10° NW 21:15:03 28° WSW 21:15:39 27° SW
ATLAS 5 CENTAUR R/B 3.2 21:09:57 10° NW 21:15:26 40° WSW 21:17:29 31° SSW
SeaSat 1 4.4 21:13:30 14° E 21:16:17 22° NE 21:20:01 10° N
Cosmos 1633 4.4 21:15:18 10° NW 21:18:08 22° W 21:18:56 21° WSW
Cosmos 1110 Rocket 3.9 21:16:13 40° SSW 21:18:13 89° ESE 21:23:36 10° NNE
Okean 1-7 2.9 21:19:09 68° E 21:19:10 68° E 21:23:26 10° NNE
Cosmos 1503 Rocket 4.4 21:15:39 10° NNW 21:20:45 51° ENE 21:21:56 42° E
CZ-2C R/B 2.8 21:20:55 57° S 21:21:51 79° WSW 21:26:48 10° NNW
H-2A R/B 4.2 21:19:42 10° SW 21:22:59 17° W 21:26:15 10° NW
Helios 1B rocket 3.6 21:20:56 10° N 21:24:50 41° WNW 21:26:36 26° WSW
Cosmos 1606 3.8 21:24:04 35° WSW 21:25:02 42° WNW 21:28:48 10° N
Cosmos 389 Rocket 3.5 21:25:16 10° NNW 21:28:17 39° W 21:28:17 39° W
Cosmos 1459 Rocket 4.0 21:28:14 49° SSE 21:29:43 63° E 21:35:44 10° NNE
Meteor 1-11 Rocket 3.6 21:24:04 10° NNW 21:29:43 89° E 21:30:59 56° SSE
Cosmos 1782 Rocket 3.8 21:26:10 10° NNW 21:30:37 62° W 21:31:09 57° SW
Terra 2.7 21:30:58 35° SW 21:32:07 41° W 21:36:40 10° NNW
Sich 1 Rocket 4.2 21:28:45 10° NNW 21:33:11 49° W 21:33:59 43° SW
Meteor 1-5 Rocket 4.1 21:32:03 10° N 21:37:28 78° ENE 21:38:27 60° SSE
Meteor 1-27 Rocket 3.7 21:37:54 55° SSE 21:39:08 74° E 21:44:54 10° NNE
ADEOS Rocket 4.5 21:34:21 10° NE 21:39:21 22° E 21:40:11 21° E
USA 267 3.3 21:33:20 10° ENE 21:39:44 53° SE 21:41:11 45° S
Okean 2 Rocket 3.0 21:36:51 10° NNW 21:41:17 79° W 21:41:23 78° WSW
CZ-4C R/B 3.3 21:37:14 10° WSW 21:42:32 46° NNW 21:48:43 10° NE
Cosmos 2344 4.3 21:38:18 10° WSW 21:45:52 57° NNW 21:55:03 10° NE
Tsikada Rocket 4.3 21:41:13 10° N 21:47:21 55° ENE 21:48:52 45° ESE
DELTA 2 DEB (DPAF) 4.4 21:52:41 55° ENE 21:52:45 55° ENE 21:57:09 10° N
Spot 4 4.0 21:54:16 58° SW 21:54:38 60° WSW 21:59:23 10° NNW
Cosmos 1656 Rocket 4.0 21:50:00 10° NW 21:55:32 54° WSW 21:56:21 49° SW
Cosmos 1943 Rocket 3.7 21:52:42 10° NW 21:57:00 24° WSW 21:58:13 22° WSW
Cosmos 1354 Rocket 3.8 21:52:13 10° NNW 21:57:31 89° WSW 21:58:01 74° SSE
Cosmos 1500 4.1 21:57:42 10° N 22:00:35 43° NNE 22:00:35 43° NNE
H-2A R/B 2.5 22:02:46 55° ENE 22:02:47 55° ENE 22:07:14 10° N
Cosmos 1271 Rocket 3.7 22:00:30 10° NNW 22:03:50 43° WNW 22:03:50 43° WNW
Cosmos 2151 Rocket 3.6 22:00:59 10° NNW 22:05:24 79° WNW 22:05:24 79° WNW
Cosmos 1975 4.2 22:05:32 10° N 22:08:50 31° ENE 22:08:50 31° ENE
Cosmos 1302 Rocket 4.1 22:08:15 55° WSW 22:09:15 70° WNW 22:14:29 10° NNE
Lacrosse 5 4.3 22:13:32 10° WSW 22:13:48 10° WSW 22:13:48 10° WSW
USA 234 3.1 22:14:03 50° SE 22:15:56 78° SW 22:22:30 10° WNW
Cosmos 2221 Rocket 4.4 22:16:48 41° W 22:17:20 43° WNW 22:21:43 10° N
Cosmos 1536 3.8 22:14:31 10° NNW 22:17:46 41° WNW 22:17:46 41° WNW
Mayak -0.3 22:14:34 10° NNE 22:17:46 41° ENE 22:17:46 41° ENE
Cosmos 2100 Rocket 4.4 22:16:42 39° SW 22:18:55 58° WNW 22:25:14 10° N
Cosmos 1666 4.3 22:15:40 10° N 22:18:19 27° NE 22:18:19 27° NE
Cosmos 1864 Rocket 4.4 22:20:35 62° SSE 22:21:42 80° E 22:27:58 10° NNE
Cosmos 968 Rocket 3.4 22:17:37 10° NNW 22:22:54 83° ENE 22:23:14 77° ESE
Lacrosse 4 Rocket 2.9 22:20:31 10° NNW 22:24:32 33° NE 22:25:29 30° ENE
Cosmos 1802 Rocket 4.2 22:23:29 47° SW 22:25:09 65° WNW 22:31:24 10° N
Cosmos 2233 Rocket 4.1 22:25:47 53° ESE 22:26:35 57° E 22:32:35 10° NNE
Cosmos 909 Rocket 4.5 22:26:20 10° NW 22:32:36 58° NE 22:35:23 33° ESE
Cosmos 2061 Rocket 4.4 22:31:12 42° SW 22:33:10 59° WNW 22:39:33 10° N
ALOS 2 2.9 22:35:16 63° NW 22:35:16 63° NW 22:39:10 10° NNW
Cosmos 1812 3.7 22:39:46 46° NNW 22:39:46 46° NNW 22:42:43 10° N
CZ-2C R/B 3.7 22:36:34 10° N 22:41:35 40° WNW 22:43:23 31° WSW
Okean 3 3.8 22:45:26 64° N 22:45:26 64° N 22:49:09 10° N
Cosmos 1743 3.8 22:42:01 10° N 22:44:59 43° NNE 22:44:59 43° NNE
Cosmos 1300 Rocket 4.4 22:42:23 10° NNW 22:46:09 42° WNW 22:46:09 42° WNW
Cosmos 1980 Rocket 3.8 22:42:07 10° NNW 22:47:03 30° NE 22:50:35 16° E
Cosmos 1697 Rocket 3.6 22:42:05 10° NNW 22:47:31 44° NE 22:49:34 32° E
Okean 1 Rocket 3.5 22:47:12 10° NNW 22:51:04 59° NW 22:51:04 59° NW
SeaSat 1 2.3 22:53:17 89° SW 22:53:17 89° SW 22:58:16 10° NNW
Cosmos 1656 3.9 22:47:53 10° NNW 22:53:37 66° ENE 22:54:42 54° ESE
Cosmos 2278 4.0 22:48:05 10° NNW 22:53:43 63° ENE 22:54:54 51° ESE
Cosmos 1867 3.7 22:48:14 10° NW 22:53:44 72° NE 22:54:36 60° ESE
Cosmos 1725 Rocket 4.2 22:53:43 51° SW 22:55:03 62° WNW 23:01:12 10° N
Gblst 52 Del rocket 4.2 22:50:56 10° W 22:56:26 76° N 23:02:20 10° E
Cosmos 2084 Rocket 4.4 22:59:16 42° NE 22:59:16 42° NE 23:02:06 10° NE
COBE Rocket 4.3 22:57:13 10° N 23:01:50 49° WNW 23:02:04 49° W
Gbstr 26 Del rocket 4.3 23:00:02 41° SW 23:03:07 72° SSE 23:10:31 10° ENE
CZ-4B R/B 3.4 22:59:11 10° N 23:03:56 70° WNW 23:03:57 70° WNW
COSMOS 2406 3.1 23:05:07 67° SW 23:05:51 80° WNW 23:11:37 10° NNE
Cosmos 2082 Rocket 3.4 23:07:54 28° ESE 23:07:54 28° ESE 23:12:34 10° NE
USA 32 3.9 23:02:43 10° N 23:08:00 76° W 23:08:08 75° WSW
Cosmos 1455 Rocket 3.7 23:05:15 10° N 23:09:12 48° ENE 23:09:12 48° ENE
Cosmos 1975 Rocket 3.5 23:11:45 59° NE 23:11:45 59° NE 23:15:34 10° NNE
Cosmos 1242 Rocket 3.9 23:12:42 10° N 23:15:14 39° NNE 23:15:14 39° NNE
Cosmos 2322 Rocket 4.4 23:14:00 10° NNW 23:18:19 22° NE 23:22:36 10° E
USA 267 3.5 23:16:25 10° ENE 23:22:56 70° NNW 23:28:29 15° WSW
Meteor 2-20 Rocket 4.3 23:18:45 10° N 23:24:52 86° E 23:25:54 64° SSE
ADEOS Rocket 3.1 23:18:55 10° NNE 23:25:46 78° WNW 23:27:09 57° SW
Okean 1 4.4 23:31:20 39° NW 23:31:20 39° NW 23:34:32 10° N
Meteor 2-20 4.4 23:24:50 10° NNW 23:30:53 70° W 23:31:42 62° SW
Cosmos 1544 Rocket 3.7 23:28:19 10° N 23:32:08 68° N 23:32:08 68° N
Cosmos 1833 Rocket 3.1 23:32:40 46° ESE 23:32:56 46° ESE 23:38:18 10° NE
H-2A R/B 4.0 23:39:52 20° WNW 23:39:52 20° WNW 23:42:30 10° NW
Cosmos 1536 Rocket 4.2 23:43:48 45° E 23:43:48 45° E 23:47:46 10° NNE
Exosat Rocket 4.2 23:39:36 10° NNW 23:45:31 90° WSW 23:48:26 41° SSE
Lacrosse 5 rocket 2.3 23:46:56 42° ENE 23:46:56 42° ENE 23:49:49 10° ENE
Meteor 1-19 Rocket 4.2 23:45:28 65° SW 23:46:19 80° WNW 23:52:12 10° N
Cosmos 2369 3.9 23:42:05 10° NW 23:47:27 52° WSW 23:47:27 52° WSW
Mayak 0.7 23:50:50 10° NNW 23:54:01 21° WNW 23:54:24 21° WNW
CZ-2D R/B 4.2 23:50:48 10° NE 23:54:17 17° E 23:56:34 14° ESE
CZ-4B R/B 2.6 23:55:10 45° NNE 23:55:10 45° NNE 23:57:58 10° N
ATLAS CENTAUR R/B 4.0 23:51:36 10° NNW 23:54:53 21° NNE 23:58:19 10° E
ATLAS 3B R/B 4.5 23:53:29 16° SE 23:55:36 18° ESE 00:00:00 10° ENE
